Temp
19 19 19 18 18 18 18 18 19 19 19 19 19 19 19 19 19 19 19 18 18 19 19 19 19 19 19 19 19 20 20 20 20 20 20 20 20 20 20 20 20 20 20 20 20 20 20 21 21 21 20 21 21 20 20 20 20 20 20 20 20 20
19 19 18 18 18 18 18 18 18 18 19 19 19 19 19 19 19 19 19 18 18 18 19 19 19 19 19 19 19 19 19 19 20 20 20 20 20 20 20 20 20 20 20 20 20 20 20 21 20 20 20 20 21 20 20 20 20 20 20 21 20 20
19 18 18 18 18 18 18 18 18 19 19 19 19 19 19 19 19 19 19 19 19 19 19 19 19 19 19 19 19 19 19 19 19 19 19 19 19 19 19 20 20 20 20 20 20 20 20 20 20 20 20 20 20 21 20 20 20 20 20 21 21 20
19 19 18 18 18 18 18 18 18 18 19 19 19 19 19 19 19 19 19 19 19 19 19 19 19 19 19 19 19 19 19 19 19 19 19 19 19 19 19 19 19 19 19 20 20 20 20 20 20 20 20 20 20 20 20 20 20 20 20 20 21 21
19 19 18 18 18 18 18 18 19 19 19 19 19 19 19 19 19 19 19 19 19 19 19 19 19 19 19 19 19 19 19 19 19 19 19 19 19 19 19 19 19 19 19 19 20 20 20 20 20 20 21 21 21 21 21 20 20 20 20 20 20 20
19 19 18 18 18 18 19 19 19 19 19 19 19 19 19 19 19 18 18 19 19 19 19 19 19 19 19 19 19 19 19 19 19 19 19 19 19 19 19 19 19 19 20 20 20 20 20 20 20 20 21 21 21 21 21 20 20 20 20 20 20 20
19 18 18 18 18 18 19 19 19 19 19 19 19 19 19 19 19 18 18 18 18 18 18 19 19 19 19 19 19 19 19 19 19 19 19 19 19 19 19 19 19 20 20 20 20 19 19 19 20 20 20 20 20 21 20 20 20 20 20 20 20 20
19 18 18 18 18 19 19 19 19 19 19 19 19 19 19 19 18 18 18 18 18 18 18 19 19 19 19 19 19 19 19 19 19 19 19 19 19 19 19 19 19 19 19 19 19 19 19 19 19 19 20 20 20 20 20 20 20 20 20 20 20 20
19 19 19 19 19 19 19 19 19 19 19 19 19 19 18 18 18 18 18 18 18 18 19 19 19 19 19 19 19 19 19 19 19 19 19 19 19 19 19 19 19 19 19 19 19 19 19 19 19 19 19 19 20 20 19 20 20 20 20 20 20 20
19 19 19 19 19 19 19 20 20 20 19 19 19 19 19 18 18 18 18 18 18 18 19 19 19 19 19 19 19 19 19 19 19 19 19 19 19 19 19 19 19 19 19 19 19 19 19 19 19 19 19 20 20 20 20 20 20 20 20 20 20 20
19 19 19 19 19 19 19 20 19 19 19 19 19 19 19 19 18 18 18 18 19 19 19 19 19 19 19 19 19 18 19 19 19 18 18 18 19 18 18 18 18 18 18 18 19 19 19 19 19 19 19 19 19 20 20 20 20 20 20 19 19 19
19 19 19 20 19 19 19 19 19 19 19 19 19 19 19 19 18 18 18 19 19 19 19 19 19 19 19 19 18 18 18 18 18 18 18 18 18 18 18 18 18 18 18 18 19 19 19 19 19 19 19 19 19 19 19 19 19 19 19 19 19 19
19 19 19 19 19 19 19 19 19 19 19 19 19 19 19 18 18 19 19 19 19 18 18 18 18 18 18 18 18 18 18 18 18 18 18 18 18 18 18 18 18 18 18 19 19 19 19 19 19 19 19 19 19 19 19 19 19 19 19 19 19 19
19 19 19 19 19 19 19 19 19 18 19 19 19 18 18 19 19 19 19 18 18 18 18 18 18 18 18 18 18 18 18 18 18 18 18 18 18 18 18 18 18 18 18 19 19 19 19 19 19 19 19 19 19 19 19 19 19 19 19 18 18 18
19 19 19 19 19 19 19 19 18 18 19 19 19 19 19 19 19 19 18 18 18 18 18 18 18 18 18 18 18 18 18 18 18 18 18 18 18 18 18 18 18 18 18 18 18 18 18 18 18 19 19 19 19 19 19 19 18 18 18 18 18 18
18 18 19 19 19 19 19 18 18 19 19 19 19 19 19 19 18 18 18 18 18 18 18 18 18 18 18 18 18 18 18 17 17 17 17 17 17 17 17 17 17 17 18 18 17 18 18 18 18 18 18 18 18 18 18 18 18 18 18 18 18 17
18 18 19 19 19 19 18 19 19 19 19 19 19 18 18 18 18 17 17 17 17 17 17 17 17 18 18 18 17 17 17 17 17 17 17 17 17 17 17 17 17 17 17 17 17 17 17 18 18 18 18 18 18 18 18 17 17 17 17 17 17 17
18 18 19 18 18 19 19 19 19 19 19 18 18 18 18 17 17 17 17 17 17 17 17 17 17 17 17 17 17 17 17 17 17 17 17 17 17 17 17 17 17 16 16 16 16 16 17 17 18 18 18 18 17 17 17 17 17 17 17 17 16 16
18 18 18 18 19 18 18 19 18 18 18 17 17 17 17 17 16 16 16 16 16 16 16 17 17 17 17 17 17 17 17 17 17 17 17 17 17 17 17 17 17 16 16 16 16 16 16 17 17 18 18 17 17 17 16 16 16 16 16 16 16 15
18 18 19 18 18 18 18 18 17 17 17 16 16 16 16 16 16 16 16 16 16 16 16 16 17 17 17 17 17 17 16 16 16 16 17 17 16 16 16 16 16 16 16 16 16 15 16 16 17 18 18 17 16 16 16 16 16 15 15 15 15 15
18 18 18 18 18 18 17 17 17 17 16 16 16 16 16 16 16 16 16 16 16 16 16 16 16 16 17 17 17 16 16 16 16 16 16 16 16 16 16 16 16 16 15 15 15 14 15 16 16 16 17 17 16 15 15 15 15 15 15 15 15 14
18 18 18 18 18 17 17 17 17 16 16 15 16 16 16 16 16 16 16 16 16 16 16 16 16 16 16 16 16 16 16 16 16 16 16 15 15 16 16 16 16 15 15 14 14 13 14 15 15 13 13 15 15 15 15 15 14 14 14 14 14 14
18 18 18 18 17 16 16 17 17 16 16 16 15 16 16 16 16 16 16 16 16 16 16 16 16 16 16 16 16 16 16 15 15 15 15 15 15 15 15 15 15 15 14 14 13 13 13 14 14 13 12 14 14 14 15 15 13 13 13 13 13 13
17 17 17 17 16 16 17 16 16 16 16 16 16 16 16 16 15 16 16 16 16 15 15 16 15 15 16 15 15 15 15 15 15 15 15 15 15 14 14 14 14 14 14 13 12 12 12 13 13 14 13 13 13 13 15 14 11 11 12 12 13 12
17 17 17 16 16 16 16 15 15 15 16 16 15 16 16 15 15 15 15 15 15 15 15 15 15 15 15 15 15 15 14 14 14 14 14 14 14 13 13 13 13 13 13 13 12 11 11 12 12 13 12 12 13 13 13 11 11 12 11 11 11 11
17 17 16 16 16 16 16 16 16 16 15 15 15 15 15 15 15 15 15 14 14 14 14 14 14 14 14 14 14 14 14 14 14 14 13 13 13 13 13 12 12 13 13 12 13 12 10 10 11 11 10 10 11 11 10 9 11 12 11 10 10 11
17 16 16 16 16 16 16 16 16 16 16 16 15 14 15 14 14 14 14 14 14 14 14 14 14 14 14 14 14 13 13 13 13 13 13 13 12 12 12 12 12 12 12 12 13 12 10 11 11 10 10 10 9 9 9 9 9 10 10 10 10 10
17 16 16 16 16 16 16 16 16 16 15 15 15 14 14 14 13 13 13 13 13 13 13 13 13 13 13 13 13 13 13 13 12 12 12 12 11 11 11 11 12 12 12 12 12 11 10 11 10 9 10 10 9 9 9 8 7 7 8 9 8 7
16 16 16 16 16 16 16 16 16 16 15 15 15 14 13 13 13 13 13 12 12 12 12 12 12 12 12 12 12 12 12 12 12 11 11 11 11 11 11 11 11 11 11 11 11 11 10 10 9 9 9 10 9 9 8 7 6 6 6 7 8 6
16 16 16 16 16 16 16 16 16 16 15 15 14 13 13 13 12 12 12 12 12 12 12 11 12 12 12 12 12 12 12 11 11 11 11 11 11 11 11 11 11 10 10 10 10 10 9 9 8 8 8 8 8 7 7 6 5 5 5 5 6 5
16 16 16 16 16 16 16 16 16 16 15 15 14 13 13 12 12 12 12 11 11 11 11 11 11 11 11 11 11 11 11 11 11 10 10 10 10 10 10 10 10 10 10 9 9 9 8 8 8 7 7 6 6 5 5 4 4 5 4 4 4 4
15 16 16 16 16 16 16 16 16 16 15 15 14 13 12 12 12 12 11 11 11 11 11 11 11 11 11 11 11 11 11 10 10 10 10 10 10 10 10 10 10 9 9 9 8 8 8 7 7 6 6 5 5 5 5 5 5 5 4 4 4 4
15 15 16 16 16 16 16 16 16 15 15 14 13 13 13 12 12 12 11 11 11 11 11 11 11 11 11 11 11 10 10 10 10 10 10 10 10 10 10 10 9 9 8 8 8 7 7 7 6 6 5 5 5 5 5 5 5 5 5 4 4 3
16 15 16 16 16 16 15 15 15 15 14 14 13 13 12 12 12 12 11 11 11 11 10 10 10 10 10 10 10 10 10 10 10 10 10 10 9 9 9 9 9 8 8 7 7 7 7 6 6 5 5 5 5 5 5 5 5 5 4 4 4 3
15 15 15 15 15 15 15 15 15 14 14 13 13 13 12 12 12 11 11 11 11 10 10 10 10 10 10 10 10 10 10 10 10 10 10 9 9 9 9 9 8 8 8 7 7 7 7 6 6 5 5 5 5 5 5 5 5 5 4 4 4 4
15 15 15 15 15 15 15 14 14 14 14 13 13 13 12 12 12 11 11 11 10 10 10 10 10 10 10 10 10 10 10 10 10 10 9 9 9 9 9 8 8 8 7 7 7 7 6 6 6 5 5 5 5 5 5 5 5 5 4 4 4 4
15 14 15 15 15 15 15 14 14 13 13 13 13 13 12 12 11 11 11 11 10 10 10 10 10 10 10 10 10 10 10 10 10 9 9 9 9 8 8 8 8 8 7 7 7 7 6 6 6 6 5 5 5 5 5 5 5 5 5 4 4 4
Height
813 815 816 817 819 819 820 821 822 823 824 825 826 826 827 827 828 828 829 830 830 830 830 830 830 830 830 830 830 830 831 831 831 831 832 832 832 832 832 832 832 832 832 832 831 831 831 831 831 831 831 831 831 830 830 830 829 828 828 827 826 826
813 814 816 817 819 820 821 821 822 823 824 825 826 826 827 828 828 829 830 830 831 831 831 831 831 831 831 831 831 831 831 832 832 832 832 832 832 832 832 832 832 832 832 832 832 831 831 831 831 831 831 831 830 830 830 830 829 829 828 827 826 826
812 813 815 817 819 820 821 822 823 823 824 825 825 826 827 828 829 829 830 830 831 831 831 831 831 831 831 832 832 832 832 832 832 832 832 832 832 832 832 832 832 832 832 832 832 831 831 831 831 831 831 831 830 830 830 830 829 828 828 827 826 825
811 812 814 815 817 819 821 822 823 823 824 825 825 827 828 829 829 830 831 831 831 832 832 832 832 832 832 833 832 833 832 833 833 833 833 833 833 833 832 832 832 832 832 832 832 831 831 831 831 831 831 831 830 830 830 829 829 828 828 827 826 825
811 812 813 814 816 818 821 822 823 823 824 825 826 827 828 829 830 831 831 831 832 832 833 833 833 833 833 833 833 833 833 833 833 833 833 833 833 833 833 832 832 832 832 832 832 832 831 831 831 831 830 830 830 830 829 829 829 828 827 827 826 825
810 812 812 813 815 818 820 821 822 823 824 825 826 827 829 830 830 831 832 832 832 832 833 833 833 834 834 834 834 834 833 833 833 833 833 833 833 832 832 832 832 832 832 832 832 832 832 831 831 830 830 830 829 829 829 829 828 828 827 826 826 825
811 812 814 814 815 817 819 820 821 822 824 825 826 827 829 830 831 832 832 832 832 832 833 833 834 834 834 834 834 834 834 834 834 833 833 833 833 832 833 832 832 832 832 832 832 832 832 832 831 831 830 830 829 829 829 828 828 827 826 826 825 824
811 813 814 815 816 817 818 819 820 822 824 825 826 827 828 829 831 832 833 833 833 833 833 833 834 834 835 835 835 834 834 834 834 834 833 833 833 833 833 833 833 832 832 832 832 832 832 832 831 831 830 829 829 829 828 828 827 826 826 825 824 824
810 812 814 816 816 817 818 818 820 821 823 825 826 827 828 830 831 832 833 834 833 833 833 833 834 834 835 835 835 835 834 834 834 834 833 833 833 833 833 833 833 833 832 832 832 832 832 831 831 830 830 829 829 828 828 827 826 826 825 824 824 823
809 811 813 815 816 817 817 818 819 821 823 825 826 827 828 830 831 833 834 835 834 833 832 832 833 834 835 835 835 835 835 834 834 834 834 834 833 833 833 833 833 833 832 832 832 831 831 831 830 830 829 829 828 827 827 826 826 825 825 824 824 823
809 811 813 815 816 816 817 818 819 821 823 825 826 827 828 830 831 833 835 835 835 833 832 832 832 833 834 835 836 836 836 835 835 834 834 834 833 833 833 833 833 833 832 832 831 831 830 830 830 830 829 828 828 827 827 826 826 825 825 824 823 822
809 810 812 814 815 816 817 818 819 821 823 825 826 827 828 830 831 833 835 835 835 834 833 832 832 832 833 835 836 836 836 836 835 835 834 834 834 833 833 833 833 833 832 831 830 830 830 830 830 830 829 829 828 828 827 827 826 825 824 824 823 822
809 811 812 813 814 815 816 818 819 821 823 824 826 827 828 829 831 833 834 835 835 835 834 832 832 832 833 834 836 836 836 836 836 835 835 834 834 834 833 834 833 833 831 830 829 829 829 829 829 829 829 828 828 827 827 826 825 824 824 823 822 821
810 811 812 814 814 815 817 818 820 822 823 825 826 827 828 829 830 832 833 834 835 835 834 833 832 832 833 834 835 836 836 836 836 836 835 835 835 834 834 834 833 832 830 829 829 829 829 829 829 829 829 828 827 827 826 825 824 824 823 823 822 821
810 812 813 814 814 816 817 819 821 822 823 825 826 827 828 829 830 831 833 834 835 835 834 834 833 832 833 833 834 835 836 837 837 837 836 836 835 834 834 834 833 831 829 829 829 829 830 829 829 829 829 828 828 827 826 825 824 824 823 823 822 821
810 812 813 814 815 816 817 819 821 822 823 825 826 827 828 829 830 831 833 834 834 834 834 834 833 832 832 833 834 835 836 837 838 837 836 836 835 835 835 834 832 830 829 829 829 830 830 830 829 829 829 829 828 827 826 825 825 824 824 823 822 821
811 812 812 813 814 816 818 819 821 822 823 825 826 827 828 829 830 831 832 833 834 834 834 834 833 833 832 833 834 836 837 837 838 837 837 836 836 836 835 833 831 829 829 829 830 830 830 830 829 829 829 828 828 827 826 826 825 825 824 824 823 822
811 812 812 813 814 816 817 819 821 822 823 825 826 828 828 829 830 831 833 834 835 834 834 833 833 833 833 834 835 836 836 837 837 837 837 837 836 836 834 832 830 829 830 830 830 830 830 830 829 829 829 829 828 827 827 826 826 826 825 824 824 824
811 812 812 814 814 816 817 819 821 822 824 826 828 829 829 830 831 832 833 834 835 835 835 834 833 833 834 834 835 836 836 837 838 838 837 836 835 835 833 831 830 830 831 831 831 831 830 830 829 829 829 829 829 828 828 827 827 826 826 826 826 825
812 812 813 814 815 817 818 820 822 824 826 827 829 830 830 831 832 833 834 835 835 835 835 835 834 834 834 834 835 836 837 837 837 836 835 834 834 834 833 831 831 831 831 831 831 830 830 829 829 829 829 829 829 829 829 828 828 828 827 827 827 826
812 813 814 815 817 818 819 822 824 826 827 829 830 831 831 832 833 833 834 835 835 836 836 835 835 834 834 834 835 835 836 836 836 834 834 834 834 833 832 831 831 831 831 830 830 829 829 828 828 828 828 829 829 830 830 829 829 829 829 828 828 827
813 814 815 816 817 819 822 824 825 827 828 829 831 831 832 833 833 834 834 835 836 836 835 835 834 834 833 833 834 835 835 836 835 835 835 835 834 832 831 830 830 830 830 830 830 830 829 828 828 827 828 828 829 830 830 830 830 830 830 830 829 828
813 814 815 816 817 820 823 825 826 827 828 830 831 832 833 833 834 834 835 835 836 836 835 835 834 834 833 833 834 835 836 836 836 835 835 834 832 830 829 830 830 831 831 831 831 831 830 829 828 827 828 829 831 831 830 830 831 832 832 831 830 829
813 814 815 816 818 820 823 825 827 828 828 830 832 833 833 834 834 834 835 835 835 835 835 835 834 834 834 834 835 836 837 836 835 834 833 831 830 829 830 831 831 831 831 832 832 833 832 830 828 828 829 831 833 833 833 833 833 834 833 831 831 830
813 814 815 816 819 821 822 824 826 828 829 831 832 833 833 834 835 835 835 835 835 835 835 835 835 834 834 835 835 835 835 834 833 833 831 830 830 831 832 832 832 832 832 833 833 833 833 832 830 830 831 833 834 835 838 838 835 834 833 832 832 832
813 815 816 817 820 821 822 823 825 827 829 830 832 833 834 835 835 835 835 835 835 836 836 835 835 835 835 834 834 834 834 833 833 832 832 832 832 833 834 834 834 834 834 834 833 833 834 834 833 833 833 835 837 839 840 839 837 836 834 833 834 834
813 815 816 818 819 821 822 823 825 826 828 829 831 833 834 835 835 835 835 835 836 836 836 836 835 835 835 834 834 834 834 834 834 834 834 834 835 835 836 836 836 835 834 835 834 833 835 836 835 836 837 838 839 841 841 840 840 839 837 835 835 834
813 815 817 818 819 821 822 824 825 827 829 830 831 833 835 835 836 836 836 836 837 837 837 837 836 836 835 836 836 836 836 836 836 837 836 836 837 838 838 838 837 836 835 835 835 835 836 837 837 839 840 840 841 842 842 842 842 841 840 838 835 835
814 815 817 819 820 821 822 824 825 826 829 831 832 833 835 835 836 836 836 837 838 838 838 838 837 837 837 837 838 838 838 838 838 838 838 838 839 839 839 838 838 837 837 837 837 838 838 839 840 841 842 842 842 842 842 842 841 841 841 840 837 836
814 815 817 819 820 822 823 824 825 827 828 830 832 834 835 835 836 836 837 838 838 839 839 839 838 838 839 839 839 839 839 839 839 839 840 840 840 840 839 839 839 839 839 839 840 840 841 842 843 844 844 844 844 843 842 842 843 842 842 842 841 840
814 816 818 820 821 823 824 825 826 827 828 830 832 833 834 835 836 837 838 839 839 840 840 840 839 839 840 840 840 840 840 840 840 840 840 840 841 840 840 840 840 841 841 842 843 843 844 845 846 847 847 847 847 847 847 847 848 847 846 846 845 843
814 816 818 820 822 823 824 825 826 827 829 830 832 833 834 836 837 838 839 839 840 841 841 841 840 840 841 841 841 841 841 841 841 841 841 841 841 841 842 842 843 843 844 845 846 846 847 848 849 849 850 850 850 850 850 851 851 850 849 849 848 846
814 817 819 821 822 823 824 825 826 827 829 831 833 834 835 837 838 839 839 840 840 841 842 842 842 842 843 843 842 842 842 842 842 842 842 842 843 843 844 844 845 846 847 848 848 849 849 851 852 852 852 853 853 852 852 852 852 851 851 850 849 847
814 817 819 821 822 823 824 825 826 828 830 832 834 835 837 838 839 839 840 840 841 842 843 843 843 844 844 844 844 843 843 843 843 843 844 844 844 845 846 846 847 848 849 850 851 851 852 853 854 854 854 854 854 854 854 854 853 852 852 851 850 849
814 817 818 820 822 823 824 825 826 828 830 832 834 836 838 839 839 840 840 841 842 843 844 844 845 845 846 845 845 844 844 844 845 845 845 846 846 847 848 848 849 850 851 853 853 854 855 855 856 856 856 856 855 855 855 854 854 853 853 852 852 851
814 816 818 820 821 822 824 825 827 829 831 833 835 837 838 839 840 841 841 842 843 845 845 845 846 846 846 846 845 845 845 846 846 847 847 848 848 849 850 850 851 852 854 855 856 856 857 857 857 858 857 857 856 856 856 855 855 855 854 854 854 853
814 816 818 820 821 823 824 825 827 829 831 833 835 837 838 839 840 841 842 842 844 845 846 847 847 847 847 847 846 846 846 847 848 849 849 850 851 852 852 853 854 855 856 857 858 858 859 859 859 859 858 858 857 857 858 857 857 856 856 855 855 854
Wind_Speed
21 20 19 17 16 15 14 13 12 11 10 9 9 11 13 13 12 11 10 9 8 9 9 9 9 9 9 8 7 8 7 5 3 3 3 3 3 2 2 2 1 1 2 2 3 4 2 1 2 3 4 5 6 7 8 9 10 12 12 11 9 9
22 21 19 17 16 15 15 14 13 12 10 10 10 12 13 12 10 9 9 7 6 6 6 6 7 8 9 8 7 7 6 6 5 3 2 2 1 0 1 2 3 3 3 3 4 4 2 1 2 4 5 6 6 7 8 9 11 11 11 11 11 9
23 21 20 17 16 16 15 14 13 12 11 11 11 12 12 11 9 8 7 6 5 4 3 3 4 5 6 6 6 6 5 5 4 4 3 3 4 4 4 3 3 4 4 5 5 5 4 4 5 6 7 7 7 7 8 9 10 10 10 11 11 9
24 22 21 19 17 17 15 14 13 12 11 12 12 11 10 9 8 6 5 5 4 2 2 2 2 2 2 3 4 4 4 4 3 3 2 3 3 4 4 4 4 5 5 5 6 6 6 7 8 9 10 10 10 9 8 9 10 10 10 11 11 10
24 23 22 20 19 18 16 14 13 12 11 12 12 10 9 7 5 4 4 3 2 1 1 1 1 1 1 2 2 2 2 2 2 2 2 2 2 3 3 3 4 4 4 5 5 5 6 8 8 9 10 10 11 9 8 8 9 10 11 11 11 10
25 23 22 21 20 18 16 15 14 13 12 13 12 10 8 6 5 4 3 3 2 1 2 3 4 3 3 3 2 1 1 1 1 1 1 2 2 3 3 3 4 4 4 4 4 6 7 8 9 9 8 9 9 7 7 8 9 10 11 11 12 11
24 22 20 19 19 17 16 15 14 14 13 13 12 10 8 7 6 5 5 4 3 2 3 4 6 6 6 5 4 3 2 1 1 1 2 2 2 3 3 4 6 6 5 5 5 6 7 8 8 8 7 7 7 6 6 7 8 10 11 11 12 11
23 21 20 18 18 16 15 15 15 14 13 13 11 9 9 7 6 6 6 5 4 4 5 6 7 8 7 6 4 3 1 1 1 1 2 2 2 3 4 5 5 6 6 6 6 7 8 8 8 8 7 7 7 6 6 6 7 9 10 11 11 11
23 22 20 19 18 16 16 16 16 15 14 13 11 9 8 7 6 7 7 6 5 6 7 7 7 8 8 6 4 2 1 1 1 1 1 3 3 4 4 5 5 6 6 6 6 7 7 8 8 8 8 8 8 8 8 8 9 10 11 11 11 11
23 21 20 19 18 17 17 17 16 15 13 12 10 8 9 8 8 9 8 7 7 7 7 6 6 7 7 5 4 2 1 1 1 1 2 3 4 5 5 5 5 5 5 5 5 6 6 7 7 8 8 9 10 10 10 11 12 12 12 12 12 12
22 21 20 20 18 17 18 17 15 13 11 10 9 10 10 11 10 9 8 7 7 7 7 6 6 6 5 4 3 2 2 1 1 2 3 3 5 5 5 5 5 4 4 5 5 6 6 6 7 7 8 9 9 10 10 10 11 11 12 11 12 12
23 22 22 21 20 19 18 16 14 12 10 10 11 12 13 12 11 9 8 8 8 7 6 6 6 5 5 4 3 2 2 2 1 2 3 3 4 5 5 4 3 3 4 5 5 5 6 7 7 7 7 8 8 8 8 9 9 10 10 11 11 11
25 23 22 22 21 19 17 16 14 12 11 12 13 14 13 12 10 9 8 8 8 7 5 6 6 6 6 6 5 4 3 1 1 1 2 2 3 4 3 3 3 3 4 5 6 7 8 8 8 8 8 8 8 9 9 9 9 9 10 11 11 10
25 23 22 22 21 19 17 16 14 14 14 14 14 13 12 10 9 8 8 7 6 6 5 6 7 7 7 7 6 5 3 1 1 0 1 1 2 3 3 2 3 3 4 6 7 8 9 10 10 9 9 9 10 10 10 10 9 9 10 10 10 10
24 23 21 22 22 19 17 17 17 18 16 14 12 11 9 8 8 8 8 6 5 6 5 5 7 8 8 7 6 5 3 2 1 1 1 1 2 3 3 3 3 4 5 6 7 8 10 11 11 10 10 10 10 10 10 9 9 9 10 11 12 13
22 22 22 23 22 20 19 20 20 18 15 13 11 10 9 8 8 7 6 5 5 6 6 7 8 8 9 8 6 4 3 3 2 1 0 1 2 3 4 4 5 7 7 8 9 9 10 11 12 12 11 11 10 10 10 11 12 14 15 16 17 18
21 23 24 24 24 22 22 22 19 17 14 12 11 10 9 8 8 8 7 6 7 7 8 9 9 9 9 8 6 5 4 4 3 1 1 2 3 4 5 5 7 9 9 9 10 11 12 12 13 13 12 10 9 11 14 16 16 17 18 18 20 21
23 25 25 26 26 25 23 20 17 15 13 11 10 10 10 10 10 10 9 9 9 9 10 10 10 9 9 8 7 5 5 4 3 2 3 3 5 6 6 7 8 9 9 10 11 13 14 14 14 13 11 9 12 16 17 18 18 18 20 21 21 22
25 26 26 27 26 24 21 19 17 15 13 12 12 12 12 12 13 12 12 12 12 12 12 11 11 10 10 9 8 6 6 5 5 4 3 4 5 6 7 8 8 8 8 9 11 12 13 14 14 11 9 10 15 18 18 17 18 19 21 22 21 22
26 26 26 25 24 22 21 19 17 15 14 15 15 16 16 15 15 13 13 12 12 12 12 12 12 11 11 9 8 7 7 6 5 2 1 3 4 6 6 7 7 7 7 8 10 12 14 14 12 9 7 11 13 15 18 17 18 20 21 22 21 22
24 25 25 24 22 22 22 20 18 17 17 18 18 18 17 16 15 14 13 11 11 11 11 11 10 10 9 8 7 6 5 4 2 1 3 4 4 5 6 6 7 7 8 10 13 15 15 12 9 9 6 7 8 9 14 18 19 19 21 22 22 23
23 22 22 22 22 21 20 20 20 20 20 20 18 18 17 15 14 13 12 10 10 9 9 8 7 6 6 6 5 4 3 2 2 2 3 4 4 5 6 6 7 8 9 11 14 17 16 11 9 7 4 4 4 5 7 15 20 18 20 22 23 24
22 21 21 21 20 18 19 20 21 22 22 20 19 17 15 13 12 12 11 9 8 7 7 6 6 5 4 4 3 3 2 2 2 2 2 3 6 7 8 7 8 7 7 10 14 18 18 15 12 6 2 3 3 1 0 8 15 16 17 21 24 26
22 21 21 19 18 19 21 22 23 23 22 20 19 16 14 12 11 10 9 8 6 5 4 4 4 4 4 4 4 3 3 2 2 3 3 6 8 9 9 8 8 6 6 9 15 20 20 19 18 11 4 1 1 2 1 5 10 10 13 18 23 26
21 20 19 16 18 22 25 26 25 24 22 20 18 16 14 12 10 9 7 6 5 3 2 2 3 3 3 4 4 3 3 2 4 5 6 7 9 10 9 9 8 7 9 12 16 21 22 22 24 20 12 5 2 2 0 5 7 5 9 15 21 26
20 19 17 16 21 25 27 27 27 26 23 21 18 15 14 12 10 9 7 5 4 2 1 1 2 2 2 3 3 4 4 4 5 7 7 9 10 11 11 11 11 11 13 13 14 19 21 21 24 25 23 17 11 6 2 4 4 2 5 8 15 23
20 19 18 19 24 26 27 28 27 25 23 22 19 15 14 12 10 9 7 5 4 3 2 2 2 3 3 3 4 5 6 7 8 10 10 11 14 14 15 15 14 15 16 14 15 19 20 17 19 21 22 20 19 17 13 9 3 2 3 3 9 20
20 20 19 22 26 27 28 28 26 24 23 21 20 17 15 13 11 10 8 6 5 4 4 4 4 5 6 6 7 8 8 9 12 13 14 16 17 17 17 17 17 18 19 18 18 21 21 19 18 17 16 17 17 18 19 18 11 5 1 3 5 12
20 20 20 23 27 27 27 27 25 24 22 20 19 18 17 14 12 10 9 8 7 7 7 7 8 9 10 10 10 11 11 13 16 18 18 20 20 19 19 20 20 20 21 22 21 21 22 22 21 18 16 16 16 16 18 22 21 15 7 3 3 5
18 20 22 25 26 26 26 26 25 24 23 21 20 19 18 15 13 11 10 10 9 9 10 10 11 12 12 12 13 13 15 17 19 20 20 21 21 21 22 22 22 22 22 23 22 22 23 23 22 22 20 20 21 19 17 19 22 21 12 7 5 5
19 21 23 25 25 25 24 24 24 23 23 22 22 21 19 17 15 12 12 12 11 12 12 13 14 14 14 15 16 17 18 20 20 21 21 21 21 22 23 22 22 23 23 23 23 24 25 24 24 24 25 25 25 23 19 16 17 19 14 9 6 6
21 22 23 24 24 24 23 22 23 22 22 23 23 22 20 18 16 14 14 14 14 14 14 15 15 16 17 17 18 20 20 21 21 21 21 21 21 22 22 22 23 23 23 24 23 24 25 25 26 27 27 26 25 24 22 19 17 18 16 12 9 6
23 22 23 24 24 23 22 23 23 23 23 23 22 21 20 19 17 15 15 16 16 17 17 18 18 19 19 19 20 21 21 22 22 22 21 21 21 21 22 23 24 24 24 24 23 25 26 27 27 28 28 27 26 24 22 19 17 17 17 15 15 10
24 22 23 23 24 24 23 24 24 23 23 23 22 20 19 19 17 16 16 17 18 18 19 19 20 20 20 20 21 21 22 22 22 21 21 21 22 21 23 24 24 24 24 23 23 25 26 27 27 27 27 26 26 25 22 19 16 17 17 17 18 13
25 23 23 23 24 24 23 23 22 22 22 22 22 20 19 18 18 17 17 18 19 19 20 21 21 21 21 22 22 22 22 22 22 21 21 22 22 22 23 24 25 25 24 24 25 26 26 26 26 25 25 26 26 25 22 20 17 16 15 15 17 16
25 24 23 23 23 23 22 21 21 22 23 23 22 21 21 19 18 18 17 18 20 20 20 21 22 22 22 22 22 22 22 22 22 22 21 21 22 22 22 24 25 26 26 25 26 26 25 25 25 24 25 25 26 26 23 21 18 16 14 13 13 15
25 24 23 22 22 21 21 22 22 23 23 23 22 22 21 20 20 19 18 18 20 20 21 21 22 22 22 22 22 22 23 23 22 22 22 21 21 22 22 23 25 27 27 26 26 26 24 24 23 23 24 25 26 26 24 22 19 16 14 13 12 13
Wind_Direction
164 165 167 168 167 166 165 163 153 145 137 128 122 127 128 119 112 107 103 100 94 94 92 91 91 84 75 66 64 68 71 84 118 160 182 195 207 222 234 251 279 304 331 339 343 337 323 350 13 1 352 348 345 345 345 348 353 352 352 348 325 300
166 168 170 171 170 167 170 167 156 150 143 136 130 132 133 124 116 109 103 101 97 93 88 89 88 84 78 72 70 65 61 64 74 92 103 108 97 353 309 302 305 314 319 320 332 337 320 300 337 336 339 343 342 342 339 340 347 349 350 348 336 312
170 170 171 173 172 171 173 169 161 155 147 144 139 136 137 131 122 112 106 102 100 99 91 95 93 80 66 63 71 74 71 65 64 66 64 62 56 47 37 22 359 349 342 338 341 343 329 306 307 314 321 326 329 329 326 328 338 342 344 348 344 328
173 173 173 173 173 175 173 168 166 160 153 151 148 143 141 136 128 121 120 112 105 107 89 82 99 89 53 37 52 70 80 79 77 66 61 56 49 41 36 33 23 12 1 356 354 347 330 316 311 312 315 317 316 315 313 321 332 335 336 341 343 337
177 177 177 175 174 175 170 168 171 165 157 156 153 150 149 145 142 144 145 138 125 112 338 351 13 30 6 353 12 54 68 74 76 68 76 62 44 32 27 34 33 23 6 359 358 349 335 326 322 319 319 319 314 305 303 317 329 331 333 338 340 339
181 181 181 180 176 173 170 171 172 167 162 159 157 157 159 167 178 188 184 180 189 252 295 313 321 319 306 296 298 325 351 13 44 50 71 52 35 29 29 33 28 21 4 356 359 353 343 335 332 330 326 325 323 311 304 314 322 326 330 334 338 340
184 184 185 184 177 174 172 171 169 167 166 162 162 163 168 179 198 218 214 206 218 245 264 283 290 289 287 284 283 296 312 321 31 51 56 52 39 27 24 23 17 11 4 358 356 348 342 338 333 333 330 328 332 326 315 315 318 323 327 330 334 338
187 187 188 187 180 177 172 169 168 168 167 166 168 169 174 183 203 218 214 209 220 237 246 263 274 275 278 282 277 281 303 308 63 58 44 51 47 31 22 20 12 5 2 356 348 337 334 335 333 332 335 338 337 330 324 324 327 331 335 336 338 337
190 189 190 189 184 179 173 169 168 169 170 174 179 178 185 198 205 206 205 207 219 233 241 253 267 267 268 273 269 258 256 196 128 81 49 45 40 28 16 11 6 3 1 352 343 336 331 332 333 330 331 336 337 337 336 335 336 336 337 337 336 334
189 189 188 187 185 180 174 170 169 172 177 185 194 196 202 209 204 202 205 211 223 233 236 238 248 254 255 258 249 225 189 152 143 98 46 30 23 11 2 3 2 4 7 0 354 349 342 335 333 332 330 329 329 330 329 327 327 327 328 328 327 326
185 184 181 181 181 177 173 171 173 179 189 200 207 205 204 203 200 206 214 222 234 236 227 220 222 227 231 232 224 202 161 134 125 82 37 15 6 357 356 2 5 11 14 15 13 3 354 344 338 337 335 333 331 329 324 320 320 321 324 326 326 324
183 181 179 180 178 175 174 176 181 189 199 206 202 197 194 193 197 208 222 232 242 239 224 210 201 200 200 195 185 168 150 124 78 50 22 7 358 350 353 358 0 9 8 8 6 360 354 347 343 341 339 339 340 338 333 328 325 325 328 331 330 327
186 184 183 182 178 177 179 183 191 196 196 192 189 189 186 185 197 212 228 239 241 235 219 200 186 177 175 174 170 161 149 114 49 26 3 352 346 341 343 338 340 350 351 351 349 347 345 343 342 343 342 341 344 345 345 344 340 337 337 341 342 336
189 188 187 185 182 183 188 193 196 191 185 182 182 185 184 187 202 216 228 234 227 216 201 185 173 167 166 165 166 162 155 125 62 30 311 323 333 341 344 337 346 356 356 356 352 346 342 342 344 345 346 346 350 352 350 349 349 351 356 0 3 1
191 191 192 190 188 190 196 194 188 183 180 183 186 189 189 193 202 210 219 216 205 201 191 169 161 164 164 162 161 157 149 129 116 179 239 322 345 2 12 7 12 16 14 9 1 353 348 347 349 349 352 355 358 359 1 6 15 27 34 36 37 38
194 194 194 192 191 192 190 185 181 180 183 188 191 192 189 188 188 189 191 185 179 180 172 154 150 154 156 157 156 148 137 135 150 182 171 22 27 40 44 43 38 30 23 16 3 356 354 353 354 355 358 1 7 19 36 51 60 63 61 58 56 55
190 190 189 187 185 183 179 178 179 179 182 188 190 188 183 176 164 152 149 151 156 158 153 146 141 141 143 143 141 138 136 137 150 170 92 65 66 65 65 60 49 39 28 17 4 357 355 353 354 358 3 10 32 57 69 73 73 70 65 61 58 55
179 181 180 177 176 174 174 176 177 176 177 178 174 169 167 160 147 139 136 136 141 142 138 136 132 134 136 136 137 135 134 136 147 154 131 101 82 72 63 52 45 40 26 16 9 1 356 353 354 360 10 34 68 77 77 74 72 66 59 56 54 51
171 172 172 172 172 171 172 173 169 164 164 160 150 146 147 146 140 137 136 134 137 136 134 133 133 136 136 136 138 135 137 142 149 150 135 104 74 56 46 40 40 35 23 17 11 3 355 352 352 360 25 73 87 78 73 71 65 59 53 50 48 45
168 170 171 171 170 167 165 161 156 152 149 144 140 137 137 138 137 138 138 138 140 139 138 138 139 142 141 141 139 139 144 145 148 150 88 56 44 36 33 31 29 22 12 8 5 1 356 351 349 358 45 97 98 74 67 64 58 53 48 44 42 40
169 174 174 172 171 167 161 154 151 148 140 136 138 137 133 134 137 137 138 140 141 140 141 139 139 141 140 139 138 140 144 133 122 55 47 55 48 43 41 35 25 15 7 10 14 10 3 359 359 1 32 95 106 88 68 56 51 48 44 41 40 39
174 176 176 177 174 164 155 156 156 148 140 136 138 140 136 136 141 141 140 142 142 140 141 139 136 137 131 127 131 138 136 109 88 63 69 70 52 34 31 26 15 14 18 27 33 25 18 20 17 9 14 45 75 113 86 56 48 43 40 40 39 40
178 179 179 178 168 154 152 161 158 149 145 140 137 141 142 142 146 146 143 144 144 141 142 141 135 131 127 124 132 146 137 121 106 82 53 37 30 23 21 15 8 13 28 45 50 41 39 42 33 33 68 39 38 68 49 38 35 35 37 38 38 39
180 181 183 174 156 154 156 154 151 147 147 144 139 142 146 146 147 146 144 143 142 138 139 137 128 123 124 127 137 146 141 124 92 55 23 23 29 30 27 22 19 26 51 70 67 56 54 54 48 49 63 70 61 48 33 344 354 17 32 33 37 37
180 180 184 169 150 155 152 146 144 141 141 141 139 144 148 143 139 142 141 134 126 116 119 116 111 109 112 120 122 124 116 88 67 46 35 40 46 48 46 48 50 60 78 86 84 71 62 61 60 61 64 72 62 44 289 314 328 1 22 27 33 33
179 177 176 164 154 156 153 150 149 145 144 143 140 144 149 145 141 142 137 129 118 99 91 88 99 102 102 104 98 96 88 76 70 63 62 66 71 73 73 76 77 83 89 91 92 80 68 66 68 67 69 75 75 70 33 327 337 341 3 20 24 25
178 175 171 162 158 158 156 155 154 153 155 155 150 148 152 151 149 144 137 133 124 114 113 108 114 113 106 106 101 98 91 87 87 85 84 85 87 89 89 89 88 88 90 89 87 80 71 68 69 66 68 72 71 68 59 48 45 326 332 342 3 16
177 173 168 163 162 162 160 158 158 158 158 160 158 152 151 151 147 146 141 135 129 125 126 127 133 127 121 119 113 107 101 100 100 97 96 96 96 97 95 93 90 88 86 82 80 78 73 68 65 62 62 65 64 62 59 58 57 52 28 287 327 7
177 170 166 165 165 165 165 163 162 161 156 157 157 152 152 150 147 148 140 132 131 132 133 133 133 129 125 121 116 113 110 108 105 102 102 101 100 99 95 92 88 86 84 81 79 78 75 70 67 62 58 57 55 53 52 48 43 44 51 11 336 345
173 167 166 169 169 166 168 168 166 164 159 156 155 153 151 147 146 146 136 132 132 132 132 131 129 126 124 121 118 117 114 110 107 106 105 102 99 95 92 90 87 85 84 83 80 79 79 76 73 68 63 60 53 47 43 36 31 31 37 29 2 328
165 166 168 170 170 169 171 172 170 169 165 162 160 156 152 146 144 142 135 134 133 133 131 128 127 125 124 123 121 118 114 113 110 107 105 100 97 94 92 91 88 86 85 84 84 83 83 80 78 74 70 68 63 58 55 46 35 31 34 25 356 329
161 166 169 171 173 174 175 176 174 173 171 168 164 160 153 146 144 142 139 138 137 135 131 129 128 126 126 126 123 119 116 114 110 106 103 100 97 95 94 92 88 87 86 86 86 84 84 81 80 78 74 71 69 66 62 56 49 42 41 30 11 344
161 166 171 175 177 177 179 179 178 176 173 168 164 160 154 148 147 146 144 144 142 139 135 132 130 128 128 128 126 122 117 113 109 106 104 101 99 96 94 91 88 88 87 86 85 85 85 83 82 80 75 72 67 65 62 57 54 47 42 35 24 5
163 168 173 176 178 178 178 178 178 175 170 166 163 160 155 151 149 148 147 146 145 143 139 134 132 130 130 129 126 122 118 112 109 108 106 104 102 97 94 90 87 87 87 88 89 89 88 85 82 78 73 69 63 60 59 55 55 49 43 38 29 15
163 168 173 174 175 175 173 173 173 171 168 167 164 160 156 153 150 148 147 145 144 142 139 135 133 131 131 129 125 121 118 113 109 108 107 106 103 99 95 90 86 87 89 93 94 91 88 84 81 77 71 66 61 57 55 51 53 52 49 45 36 29
164 167 169 170 170 170 168 168 169 169 167 167 164 159 155 152 150 148 146 144 143 141 138 136 134 132 131 128 125 122 119 114 111 109 107 107 104 101 97 91 87 90 94 95 92 88 85 82 80 76 70 64 59 55 51 49 52 52 52 52 45 39
160 162 165 166 166 166 166 165 166 167 168 167 166 161 156 153 150 147 143 142 142 140 138 138 136 133 131 127 124 121 119 116 113 110 108 107 105 102 98 92 91 94 96 93 87 83 82 80 78 75 69 62 57 53 50 48 50 51 52 53 52 48